Retour au catalogue

SL-8 DEB

ActifLEO
NORAD 21166·DEBRIS·🇷🇺 Russia

Lancé Feb 12, 1991 depuis Plesetsk Cosmodrome

Loading…

Prochains Passages (prochaines 24 heures)

TLE

FraisSource: Space-Track

Époque: Sep 14, 2026, 14:37 UTC

1 21166U 91009AD  26257.60964978  .00000022  00000-0  34800-3 0  9998
2 21166  74.0611 125.1311 0121912 164.0782 224.6380 12.19245219581235

Suivez SL-8 DEB en temps réel avec AllMySat

Download on the App Store